Location: Nashville
(36.1660°N, 86.7840°W)
Time: 10:11:22
(UTC-06:00)

X-37B - Visible Passes

Search period start: 03 December 2022 00:00
Search period end: 13 December 2022 00:00
Orbit: 277 x 277 km, 45.0° (Epoch: 01 November)

Date Brightness Start Highest point End Pass type
(mag) Time Alt. Az. Time Alt. Az. Time Alt. Az.
04 Dec 2.5 17:29:00 10° SSE 17:29:47 11° SE 17:30:16 11° SE visible
05 Dec 1.6 17:28:19 10° SSW 17:30:19 22° SE 17:31:11 18° ESE visible
06 Dec 0.3 17:28:33 10° SW 17:30:55 49° SE 17:32:02 25° E visible
07 Dec 0.0 17:29:09 10° WSW 17:31:34 70° NNW 17:32:48 25° NE visible
08 Dec 1.1 17:30:02 10° W 17:32:18 34° NNW 17:33:32 20° NNE visible
09 Dec 1.8 17:31:05 10° WNW 17:33:05 21° NNW 17:34:13 16° NNE visible
10 Dec 2.2 17:32:19 10° NW 17:33:55 15° NNW 17:34:52 13° NNE visible
11 Dec 2.4 17:33:38 10° NW 17:34:48 12° N 17:35:31 11° N visible
12 Dec 2.5 17:34:54 10° NNW 17:35:42 11° N 17:36:09 11° N visible
